Temperature
20 19 19 18 18 18 18 18 18 18 18 18 18 17 17 17 17 17 17 16 16 16 16 16 16 16 16 16 16 16 16 16 16 16 17 17 17 18 18 18 18 18 18
20 20 19 19 18 18 18 18 17 17 17 17 17 17 17 17 17 17 16 16 16 16 16 16 15 15 15 15 15 15 15 15 16 16 16 17 17 18 18 18 18 18 18
21 20 20 19 19 18 18 18 17 17 17 17 17 16 16 17 17 16 16 16 16 16 15 15 15 15 15 15 15 15 15 15 15 16 16 17 18 18 18 18 18 18 18
22 21 20 20 19 19 18 18 17 17 16 16 16 16 16 16 16 16 16 16 15 15 15 15 15 15 15 15 14 14 15 15 15 16 16 16 17 17 18 18 18 18 18
22 21 21 20 20 19 19 18 18 17 16 16 16 15 15 15 15 15 15 15 15 15 15 15 14 14 14 14 14 14 14 15 15 15 16 16 17 17 17 18 18 18 18
22 21 21 20 20 19 19 18 18 17 16 15 15 15 15 14 14 14 14 14 14 15 15 15 14 14 14 14 14 14 14 14 14 15 15 15 16 16 17 17 18 18 18
22 22 21 20 20 19 19 18 17 16 16 15 15 14 14 14 14 14 14 14 14 14 15 15 14 14 14 13 13 13 14 14 14 14 15 15 15 16 16 17 17 18 18
23 22 21 20 20 19 18 18 17 16 15 15 14 14 13 13 13 13 13 13 13 13 14 14 14 13 13 13 13 13 13 13 13 14 14 14 15 15 15 16 17 17 18
23 22 21 20 19 19 18 17 16 16 15 14 14 13 13 13 13 13 13 12 13 13 13 13 13 13 13 13 13 13 13 13 13 13 13 14 14 15 15 15 16 16 16
22 21 20 20 19 18 17 16 16 15 14 14 13 13 13 12 12 12 12 12 12 12 12 12 12 12 12 12 12 12 12 12 12 12 13 13 14 14 14 15 15 15 16
21 21 20 19 18 17 16 16 15 14 14 13 13 12 12 12 11 11 11 11 11 11 11 11 11 11 11 12 12 12 12 12 12 12 12 12 13 13 13 14 14 15 15
21 20 19 18 17 16 15 15 14 13 13 12 12 12 11 11 11 11 10 10 10 10 10 10 10 11 11 11 11 11 11 11 11 11 11 12 12 12 13 13 13 14 14
20 19 18 17 16 15 14 14 13 13 12 12 11 11 11 10 10 10 10 10 10 10 10 10 10 10 10 10 11 11 11 11 11 11 11 11 11 11 12 12 12 13 13
19 18 17 16 15 14 14 13 12 12 11 11 11 10 10 10 10 9 9 9 9 9 9 9 9 9 10 10 10 10 10 11 11 11 11 11 11 11 11 11 12 12 12
18 17 16 15 14 14 13 12 12 11 11 10 10 10 9 9 9 9 9 9 9 9 9 9 9 9 9 9 10 10 10 10 10 11 11 11 11 11 11 11 11 11 11
18 17 16 15 14 13 12 12 11 11 10 10 10 9 9 9 9 8 8 8 8 8 8 8 8 8 8 9 9 9 9 10 10 10 10 10 11 11 11 11 11 11 11
17 16 15 14 13 13 12 11 11 10 10 9 9 9 8 8 8 8 8 8 8 8 8 8 8 8 8 8 8 9 9 9 9 10 10 10 10 11 11 11 10 11 11
16 15 14 14 13 12 12 11 10 10 9 9 9 8 8 8 8 8 8 8 7 7 7 7 7 7 7 8 8 8 8 9 9 9 10 10 10 10 10 10 10 10 11
15 14 14 13 13 12 11 10 10 9 9 9 8 8 8 7 7 7 7 7 7 7 7 7 7 7 7 7 7 8 8 8 9 9 9 9 10 10 10 10 10 10 10
15 14 13 13 12 11 11 10 9 9 8 8 8 7 7 7 7 7 7 7 7 7 7 7 7 7 7 7 7 7 7 8 8 9 9 9 9 10 10 10 10 10 10
15 14 13 12 12 11 10 9 9 8 8 8 7 7 7 7 7 7 8 7 7 7 7 7 7 7 7 7 7 7 7 7 8 8 9 9 9 10 10 10 10 10 10
14 13 13 12 11 11 10 9 9 8 8 8 7 7 7 7 7 8 8 8 7 7 7 7 7 7 7 7 7 7 7 7 8 8 8 9 9 9 10 10 10 10 10
14 13 12 12 11 10 9 9 8 8 8 8 8 7 8 8 8 8 8 8 7 7 7 7 7 7 7 7 7 7 7 7 7 8 8 8 9 9 9 9 10 9 9
13 13 12 11 11 10 9 9 8 8 8 7 7 7 7 8 8 8 8 7 7 7 7 7 7 7 7 7 7 7 7 7 7 7 8 8 9 9 9 9 9 9 9
13 12 12 11 10 10 9 8 8 8 7 7 7 7 8 8 8 8 8 8 7 7 7 6 6 6 7 7 7 7 7 7 7 7 7 8 8 9 9 9 9 9 9
13 12 11 11 10 9 9 8 8 7 7 7 7 7 8 8 8 8 8 8 7 7 7 7 6 6 6 7 7 7 7 7 7 7 7 8 8 8 9 9 9 9 9
Wind_Speed
7 6 5 5 5 4 4 3 3 3 2 2 3 3 3 4 3 2 1 2 3 4 4 5 4 3 3 4 4 4 5 5 4 4 6 6 7 8 8 8 7 8 9
7 6 5 5 5 4 3 2 2 3 3 3 3 3 3 4 3 2 0 1 2 3 4 3 4 3 3 4 3 4 4 4 4 4 3 3 5 6 9 7 6 6 6
6 5 4 4 4 3 2 2 2 2 3 4 4 4 3 4 4 3 2 0 1 2 2 3 3 3 3 3 3 3 4 4 4 4 3 3 2 3 4 7 7 7 5
5 4 3 2 2 1 2 3 2 1 2 3 4 6 6 6 6 4 3 2 2 4 3 3 2 2 2 3 4 3 3 4 4 3 4 3 1 1 2 3 5 7 5
3 2 0 0 1 2 2 2 2 2 1 3 5 6 7 6 6 6 7 6 5 6 6 5 3 1 2 1 2 3 3 3 4 3 3 3 3 4 2 3 4 4 5
1 0 1 2 2 3 3 2 1 1 2 4 6 7 8 8 9 9 9 8 6 5 6 5 4 3 2 1 2 2 3 3 4 4 4 3 3 3 3 3 5 6 5
1 1 2 3 3 4 3 3 3 3 4 5 6 7 8 9 10 10 9 8 6 5 5 4 4 4 3 3 2 2 2 3 4 4 4 4 4 4 4 3 4 4 4
2 3 3 3 4 5 4 4 5 5 5 6 7 7 9 8 8 8 8 8 7 8 7 6 4 5 5 5 4 3 3 3 3 5 4 4 4 4 4 3 3 3 3
7 7 7 8 7 7 6 6 7 6 6 7 9 9 9 8 8 9 9 8 7 9 8 7 6 6 6 6 6 5 5 4 4 4 5 5 3 2 4 4 3 3 3
10 11 10 10 9 8 7 7 7 7 7 8 9 11 8 8 9 9 9 9 9 10 9 10 9 9 8 8 8 7 7 7 6 5 5 5 4 3 3 4 3 3 3
11 11 11 10 10 10 9 8 8 8 8 8 8 8 8 8 8 8 9 9 9 9 9 9 10 10 10 9 9 9 8 8 8 7 7 7 6 4 3 3 3 2 2
11 11 12 10 10 10 10 10 9 9 9 8 8 8 8 9 10 11 9 9 10 10 10 10 10 11 11 10 10 11 11 10 9 9 8 8 7 7 5 4 4 3 2
12 12 11 10 10 10 10 11 11 11 11 10 9 9 10 10 10 10 10 10 10 10 10 10 11 11 11 11 11 11 11 10 10 9 9 8 8 7 6 6 5 4 4
11 11 10 10 10 10 9 10 11 11 12 11 11 10 10 10 11 10 10 11 11 11 11 10 11 11 11 12 12 12 12 11 10 10 9 9 9 8 7 7 7 5 5
12 12 12 10 10 10 9 10 10 10 11 11 12 12 11 10 11 10 11 11 11 14 11 10 10 10 11 12 12 11 14 12 11 11 10 10 11 12 9 7 7 7 6
13 14 13 13 12 11 11 11 11 11 10 11 13 12 12 12 11 11 11 11 11 11 11 11 11 12 13 12 9 8 9 9 10 11 11 11 10 12 13 12 10 9 8
13 13 13 12 10 10 10 10 11 11 11 12 13 13 13 13 13 14 14 13 12 12 12 12 12 12 12 14 13 10 7 9 9 10 9 12 13 14 11 12 13 11 11
13 13 13 13 12 11 11 11 14 13 13 13 13 13 14 15 14 14 14 13 11 11 11 12 12 12 13 14 14 13 10 10 10 10 10 10 9 9 10 11 11 10 10
11 11 13 13 12 12 13 13 14 14 14 14 14 15 15 15 15 15 14 13 12 12 12 12 12 12 11 12 13 12 8 8 10 11 11 11 11 12 11 9 9 9 8
11 11 12 13 12 12 13 13 14 14 14 15 15 15 15 15 16 15 13 12 11 11 11 11 11 11 10 11 13 13 8 8 9 9 9 12 12 13 13 9 8 8 7
12 11 11 11 11 11 11 13 14 14 14 15 15 15 15 15 15 13 11 11 11 11 10 11 10 9 10 10 13 14 9 8 7 7 7 8 12 13 15 11 7 7 5
12 13 10 10 10 10 11 13 14 14 15 15 16 16 15 15 14 12 11 11 10 10 10 9 8 7 7 8 11 14 14 9 6 5 5 5 11 13 15 11 8 8 5
12 12 12 11 10 10 11 13 13 14 15 15 16 15 16 13 12 11 11 10 8 7 7 7 6 5 4 4 8 12 13 10 6 3 2 4 9 11 10 11 10 9 5
11 11 13 13 12 12 11 11 12 13 14 15 15 14 14 13 11 9 8 8 7 7 7 6 5 5 3 1 3 5 7 8 7 5 4 7 9 7 7 8 8 7 6
10 11 11 12 13 12 12 12 13 13 15 15 14 14 13 11 10 9 7 6 4 3 5 6 6 5 3 3 3 1 3 5 7 7 6 5 5 6 6 7 8 8 8
10 10 12 13 13 12 12 12 12 13 14 14 13 11 11 9 9 8 7 4 3 1 1 3 4 3 3 4 3 3 3 3 4 5 6 7 7 8 8 8 8 8 8
Wind_Direction
100 94 94 92 91 85 78 65 51 43 1 1 342 336 338 322 300 283 31 335 332 331 309 305 301 281 278 272 259 246 254 249 249 252 260 253 239 221 214 209 210 207 205
113 107 108 104 97 94 94 102 75 39 7 17 321 283 301 297 295 314 235 285 326 318 312 317 301 300 284 275 271 257 256 253 236 224 239 245 233 222 213 196 202 217 202
115 116 113 109 107 97 82 64 60 12 357 338 312 320 313 293 300 312 287 254 303 285 289 304 309 313 299 284 280 253 246 254 263 234 227 241 228 190 207 201 197 195 195
124 124 121 115 128 173 187 162 180 215 284 305 320 326 310 307 310 309 308 310 269 251 239 250 277 310 313 306 292 279 259 256 267 274 258 262 301 257 188 216 191 179 185
122 115 83 238 282 288 277 220 180 193 283 312 306 304 304 311 313 317 308 303 285 259 237 220 207 230 278 312 310 320 301 272 264 267 282 281 267 255 233 216 190 180 177
112 151 261 253 267 285 295 318 45 56 332 320 317 312 308 307 305 299 292 287 272 260 248 218 184 200 217 251 280 281 273 280 282 282 280 281 271 267 260 238 205 192 193
208 271 274 281 287 302 325 346 2 352 340 325 318 315 313 308 293 282 281 285 293 289 279 258 185 202 204 214 228 247 257 252 255 261 272 280 278 281 274 263 250 214 184
358 319 305 314 330 331 345 352 354 344 335 322 313 305 296 290 288 300 313 307 298 292 287 286 247 222 216 225 213 228 231 235 245 250 254 267 274 289 284 274 270 253 214
356 349 356 354 351 350 351 344 338 333 326 315 305 289 277 284 297 303 296 289 283 285 292 299 286 257 232 222 216 228 234 226 230 241 240 242 253 274 294 286 270 244 229
351 355 353 348 351 346 345 342 338 333 326 317 308 306 312 311 298 291 287 287 289 285 277 271 272 268 253 231 220 224 226 223 222 225 235 239 236 239 267 286 275 258 236
351 346 344 348 348 343 339 342 341 335 324 316 308 304 299 296 294 292 290 289 287 288 286 279 273 266 258 247 233 228 224 220 221 221 218 223 223 225 230 251 268 274 254
350 347 346 348 344 339 339 337 334 325 320 318 316 311 308 305 301 298 297 298 296 291 288 282 276 271 264 251 241 235 232 222 221 220 219 217 218 215 222 222 233 242 238
353 348 348 346 341 342 337 330 324 322 321 319 317 313 310 307 302 299 296 293 290 287 283 280 278 274 270 264 253 242 235 228 222 220 219 215 212 215 214 212 218 221 227
352 348 346 342 342 334 330 326 323 323 318 319 315 308 306 303 301 300 299 297 294 289 283 277 274 272 269 265 260 253 242 233 227 221 221 218 212 211 209 214 212 210 212
346 344 340 338 335 331 328 325 323 320 317 313 309 308 307 307 305 302 299 296 293 290 288 286 281 274 268 261 253 251 250 239 231 225 221 221 217 212 203 212 205 201 204
343 339 337 335 332 330 328 328 322 320 317 315 313 312 311 308 303 300 296 294 292 289 285 280 277 273 270 270 264 255 263 257 241 230 222 224 223 212 202 206 203 198 202
339 339 337 331 330 330 331 325 322 319 318 316 315 314 313 309 307 306 303 299 297 292 284 277 273 267 263 260 254 242 248 258 249 236 224 227 224 203 198 203 206 209 215
342 338 331 329 329 331 329 328 324 322 322 320 319 317 314 311 309 304 301 299 296 290 284 278 272 267 262 253 244 235 238 245 244 238 225 220 233 225 202 201 204 207 212
340 332 329 328 329 331 333 331 324 323 322 322 321 317 314 311 307 304 303 301 296 291 284 278 271 265 261 247 238 229 235 237 240 235 228 218 216 220 203 201 204 209 215
337 331 330 330 333 335 333 327 323 323 324 323 319 316 312 308 305 301 300 299 294 290 288 281 271 264 258 242 228 220 229 232 235 232 230 222 214 208 198 200 204 211 217
335 334 334 333 334 333 332 326 325 325 325 321 315 312 310 306 300 301 303 301 298 294 289 283 274 263 253 241 223 212 223 226 230 230 222 218 204 201 198 201 205 209 214
336 336 334 332 333 338 336 328 327 327 323 320 316 312 311 308 309 309 307 305 302 299 296 290 284 269 251 239 221 208 215 229 238 231 223 206 189 193 193 194 190 174 183
336 334 333 330 335 339 338 330 329 327 323 320 317 313 312 310 308 308 310 311 310 308 307 302 297 288 263 232 214 205 209 216 232 235 195 178 174 180 192 203 185 175 197
333 335 332 332 334 337 336 334 330 327 324 320 318 316 315 313 314 314 313 313 320 323 323 324 322 315 306 272 202 193 199 204 218 220 188 171 168 185 198 186 190 202 215
334 334 333 331 333 335 335 338 333 329 325 321 320 320 317 314 318 320 323 324 343 334 318 327 332 334 337 355 355 201 188 195 198 186 179 182 179 196 206 199 193 201 209
334 334 333 331 332 334 336 337 335 331 326 322 322 320 318 319 322 323 325 339 327 322 321 324 323 342 18 4 40 90 108 119 139 177 194 199 201 206 210 210 203 202 206
Height
1501 1501 1502 1502 1502 1502 1503 1503 1503 1504 1504 1504 1504 1504 1503 1503 1503 1502 1500 1500 1499 1498 1496 1495 1494 1493 1492 1491 1491 1490 1491 1492 1493 1494 1495 1496 1498 1500 1501 1504 1506 1508 1510
1501 1502 1503 1503 1503 1503 1504 1504 1503 1503 1503 1503 1502 1502 1502 1501 1501 1500 1498 1497 1495 1494 1493 1492 1490 1489 1488 1487 1487 1487 1487 1489 1490 1491 1492 1493 1495 1495 1498 1499 1502 1504 1506
1501 1503 1503 1504 1504 1504 1504 1504 1503 1502 1502 1501 1501 1501 1500 1499 1499 1498 1496 1494 1492 1491 1490 1488 1487 1486 1485 1484 1484 1483 1485 1485 1487 1488 1489 1491 1491 1491 1494 1496 1498 1500 1502
1501 1502 1503 1504 1504 1504 1504 1503 1502 1501 1500 1499 1499 1498 1498 1497 1496 1495 1493 1491 1489 1488 1486 1485 1484 1483 1482 1482 1482 1481 1482 1483 1483 1484 1486 1488 1489 1490 1491 1493 1495 1496 1499
1500 1502 1503 1503 1503 1503 1503 1502 1500 1499 1498 1497 1496 1495 1494 1493 1492 1490 1489 1488 1486 1485 1483 1481 1480 1480 1479 1479 1479 1479 1480 1480 1481 1481 1483 1484 1486 1487 1490 1490 1492 1494 1496
1499 1500 1501 1501 1501 1501 1501 1500 1498 1497 1496 1494 1493 1492 1491 1489 1487 1486 1484 1483 1482 1481 1480 1478 1476 1476 1476 1476 1476 1476 1476 1477 1478 1478 1480 1482 1483 1484 1486 1488 1489 1490 1493
1497 1498 1498 1499 1499 1499 1498 1497 1496 1494 1493 1491 1490 1489 1487 1485 1483 1481 1480 1478 1477 1477 1476 1475 1473 1472 1472 1472 1472 1472 1473 1473 1474 1474 1476 1477 1479 1481 1483 1485 1486 1487 1489
1495 1496 1496 1496 1497 1496 1495 1494 1493 1491 1490 1488 1486 1485 1483 1481 1479 1477 1475 1474 1473 1472 1471 1471 1470 1468 1468 1468 1468 1468 1468 1469 1469 1470 1471 1472 1475 1477 1479 1481 1483 1484 1486
1494 1494 1495 1495 1494 1494 1493 1492 1490 1488 1486 1484 1482 1480 1478 1476 1474 1472 1470 1469 1468 1467 1466 1465 1464 1464 1463 1463 1463 1463 1464 1464 1464 1465 1466 1467 1469 1471 1474 1476 1479 1481 1482
1493 1493 1494 1493 1493 1492 1490 1489 1487 1484 1482 1480 1478 1476 1473 1471 1468 1466 1464 1463 1461 1461 1459 1459 1458 1458 1458 1458 1458 1458 1458 1459 1459 1460 1461 1462 1463 1465 1468 1470 1473 1475 1478
1492 1493 1492 1492 1490 1489 1488 1486 1483 1481 1478 1475 1473 1470 1467 1465 1463 1460 1458 1457 1455 1453 1452 1451 1451 1451 1451 1452 1452 1452 1453 1453 1454 1455 1456 1456 1458 1459 1461 1463 1466 1469 1472
1492 1491 1491 1490 1488 1487 1485 1482 1480 1477 1474 1471 1468 1465 1462 1459 1456 1454 1452 1450 1448 1446 1445 1444 1443 1443 1443 1444 1445 1445 1447 1447 1448 1449 1450 1451 1453 1454 1455 1457 1460 1463 1466
1490 1490 1489 1488 1486 1484 1481 1479 1476 1473 1470 1466 1463 1460 1456 1453 1450 1448 1445 1443 1441 1439 1437 1436 1435 1435 1435 1436 1437 1438 1439 1441 1442 1443 1445 1446 1447 1449 1450 1452 1454 1457 1460
1489 1488 1487 1485 1483 1481 1478 1475 1472 1469 1465 1462 1458 1454 1451 1448 1445 1442 1439 1436 1434 1432 1430 1428 1427 1426 1426 1427 1428 1429 1431 1433 1435 1437 1438 1440 1442 1444 1445 1447 1449 1451 1454
1488 1487 1485 1483 1480 1477 1474 1471 1468 1464 1460 1456 1453 1449 1446 1442 1439 1436 1432 1429 1427 1424 1422 1420 1419 1418 1418 1418 1419 1420 1423 1425 1427 1429 1432 1434 1436 1438 1440 1442 1444 1446 1448
1486 1485 1482 1480 1477 1474 1471 1467 1463 1460 1456 1452 1448 1444 1440 1436 1432 1429 1426 1423 1419 1417 1414 1412 1410 1409 1409 1410 1411 1412 1414 1416 1419 1422 1424 1428 1430 1433 1435 1437 1439 1442 1444
1484 1482 1480 1477 1474 1471 1467 1463 1459 1455 1451 1447 1443 1438 1434 1430 1426 1423 1419 1415 1412 1409 1406 1403 1402 1400 1400 1401 1402 1403 1405 1408 1411 1414 1418 1421 1425 1427 1429 1432 1434 1436 1439
1482 1480 1477 1474 1471 1467 1464 1460 1455 1451 1447 1442 1438 1433 1429 1424 1420 1416 1412 1408 1405 1401 1398 1395 1393 1392 1391 1392 1393 1394 1397 1400 1403 1407 1411 1414 1418 1422 1424 1427 1429 1431 1433
1480 1478 1475 1471 1468 1464 1460 1456 1451 1447 1442 1438 1433 1428 1423 1418 1414 1410 1406 1402 1398 1394 1391 1388 1385 1384 1383 1384 1385 1386 1388 1391 1395 1400 1404 1408 1412 1416 1420 1422 1424 1427 1430
1478 1475 1472 1468 1465 1461 1456 1452 1447 1443 1438 1433 1428 1423 1418 1413 1409 1404 1400 1396 1392 1388 1384 1381 1379 1377 1376 1376 1378 1379 1382 1385 1389 1394 1398 1402 1406 1410 1414 1417 1420 1423 1425
1475 1472 1469 1465 1462 1457 1453 1448 1444 1439 1434 1429 1423 1418 1413 1409 1404 1400 1395 1391 1387 1383 1379 1375 1373 1371 1370 1371 1372 1374 1376 1380 1384 1388 1392 1397 1401 1405 1409 1413 1416 1419 1422
1472 1469 1466 1462 1458 1454 1449 1445 1440 1435 1429 1424 1419 1414 1409 1404 1400 1396 1391 1387 1382 1378 1374 1371 1368 1367 1366 1366 1367 1369 1372 1376 1380 1383 1388 1392 1396 1400 1404 1408 1411 1415 1418
1470 1467 1463 1459 1456 1451 1447 1441 1436 1431 1425 1420 1415 1410 1405 1400 1396 1392 1387 1383 1379 1375 1371 1368 1366 1363 1363 1362 1363 1365 1368 1372 1376 1380 1384 1388 1392 1396 1400 1404 1407 1410 1413
1468 1464 1461 1457 1453 1448 1443 1438 1433 1427 1422 1416 1411 1406 1402 1397 1393 1389 1385 1381 1377 1373 1369 1366 1364 1362 1361 1361 1361 1362 1365 1368 1372 1377 1381 1385 1388 1392 1396 1400 1403 1406 1409
1465 1462 1458 1454 1450 1445 1440 1435 1430 1424 1418 1413 1408 1403 1399 1395 1391 1387 1383 1379 1375 1372 1368 1365 1363 1361 1360 1360 1360 1361 1363 1366 1370 1374 1379 1382 1385 1389 1392 1395 1398 1401 1403
1462 1459 1455 1451 1447 1442 1437 1432 1427 1421 1416 1411 1406 1401 1397 1393 1389 1385 1381 1377 1374 1371 1367 1365 1362 1360 1360 1359 1360 1361 1363 1366 1369 1373 1376 1379 1382 1385 1389 1391 1394 1396 1399